SCP
0 0 0 0 0 0 0 0 0 0 0 0 0 0 -0 -0 -0 0 0 0 0 0 0 0 0 0 0 0 0 0 0 0 0 0 0 0 0 0 0 0 0 0 0 0
0 0 0 0 0 0 0 0 0 0 0 0 0 0 0 -0 0 0 0 0 0 0 0 0 0 0 0 0 0 0 0 0 0 0 0 0 0 0 0 0 0 0 0 0
0 0 0 0 0 0 0 0 0 0 0 0 0 0 0 0 0 -0 0 0 0 0 0 0 0 0 0 0 0 0 0 0 0 0 0 0 0 0 0 0 0 0 0 0
0 0 0 0 0 0 0 0 0 0 0 0 0 0 0 0 0 -0 0 0 0 0 0 0 0 0 0 0 0 0 0 0 0 0 0 0 0 0 0 0 0 0 0 0
0 0 0 0 0 0 0 0 0 0 0 0 0 0 0 0 0 -0 0 0 0 0 0 0 0 0 0 0 0 0 0 0 0 0 0 0 0 0 0 0 0 0 0 0
0 0 0 0 0 0 0 0 0 0 0 0 0 0 0 0 -0 -0 0 0 0 0 0 0 0 0 0 0 0 0 0 0 0 0 0 0 0 0 0 0 0 0 0 0
0 0 0 0 0 0 0 0 0 0 0 0 0 0 0 0 -0 -0 0 -0 0 0 0 0 0 0 0 0 0 0 0 0 0 0 0 0 0 0 0 0 0 0 0 0
0 0 0 0 0 0 0 0 0 0 0 0 0 0 0 0 -0 -0 -0 -0 0 0 0 0 0 0 0 0 0 0 0 0 0 0 0 0 0 0 0 0 0 0 0 0
0 0 0 0 0 0 0 0 0 0 0 0 0 0 0 0 -0 -0 -0 -0 0 0 0 0 0 0 0 0 0 0 0 0 0 0 0 0 0 0 0 0 0 0 0 0
0 0 0 0 0 0 0 0 0 0 0 0 0 0 0 0 -0 -0 -0 -0 -0 0 0 0 0 0 0 0 0 0 0 0 0 0 0 0 0 0 0 0 0 0 0 0
0 0 0 0 0 0 0 0 0 0 0 0 0 0 0 0 -0 -0 -0 -0 -0 0 0 0 0 0 0 0 0 0 0 0 0 0 0 0 0 0 0 0 0 0 0 0
0 0 0 0 0 0 0 0 0 0 0 0 0 0 0 0 -0 0 -0 -0 -0 -0 0 0 -0 0 0 0 0 0 0 0 0 0 0 0 0 0 0 0 0 0 0 0
0 0 0 0 0 0 0 0 0 0 0 0 0 0 0 0 0 0 -0 -0 -0 -0 -0 -0 -0 -0 0 0 0 0 0 0 0 0 0 0 0 0 0 0 0 0 0 0
0 0 0 0 0 0 0 0 0 0 0 0 0 0 0 0 0 0 0 -0 -0 -0 -0 -0 -0 -0 -0 0 0 0 0 0 0 0 0 0 0 0 0 0 0 0 0 0
0 0 0 0 0 0 0 0 0 0 0 0 0 0 0 0 0 -0 0 0 -0 -0 -0 -0 -0 -0 -0 -0 0 0 0 0 0 0 0 0 0 0 0 0 0 0 0 0
0 0 0 0 0 0 0 0 0 0 0 0 0 0 0 0 0 -0 0 0 -0 -0 -0 -0 -0 -0 -0 -0 -0 0 0 0 0 0 0 0 0 0 0 0 0 0 0 0
0 0 0 0 0 0 0 0 0 0 0 0 0 0 0 0 0 0 0 0 0 -0 -0 -0 -0 -0 -0 -0 -0 0 0 0 0 0 0 0 0 0 0 0 0 0 0 0
0 0 0 0 0 0 0 0 0 0 0 0 0 0 0 0 0 0 0 -0 0 -0 -0 -0 -0 -0 -0 -0 -0 0 0 0 0 0 0 0 0 0 0 0 0 0 0 0
0 0 0 0 0 0 0 0 0 0 0 0 0 0 0 0 0 0 0 -0 -0 -0 -0 -0 -0 -0 -0 -0 -0 0 0 0 0 0 0 0 0 0 0 0 0 0 0 0
0 0 0 0 0 0 0 0 0 0 0 0 0 0 0 0 0 0 0 -0 -0 -0 -0 -0 -0 -0 -0 -0 -0 0 0 0 0 0 0 0 0 0 0 0 0 0 0 0
0 0 0 0 0 0 0 0 0 0 0 0 0 0 0 0 0 0 0 -0 -0 0 0 -0 -0 0 0 -0 -0 0 0 0 0 0 0 0 0 0 0 0 0 0 0 0
0 0 0 0 0 0 0 0 0 0 0 0 0 0 0 0 0 0 0 0 -0 0 0 0 0 -0 -0 -0 0 0 0 0 0 0 0 0 0 0 0 0 0 0 0 0
0 0 0 0 0 0 0 0 0 0 0 0 0 0 0 0 0 0 0 0 -0 -0 0 0 0 -0 -0 0 0 0 0 0 0 0 0 0 0 0 0 0 0 0 0 0
0 0 0 0 0 0 0 0 0 0 0 0 0 0 0 0 0 0 0 0 0 -0 -0 0 0 0 0 0 0 0 0 0 0 0 0 0 0 0 0 0 0 0 0 0
0 0 0 0 0 0 0 0 0 0 0 0 0 0 0 0 0 0 0 0 0 -0 -0 0 0 0 0 0 0 0 0 0 0 0 0 0 0 0 0 0 0 0 0 0
0 0 0 0 0 0 0 0 0 0 0 0 0 0 0 0 0 0 0 0 0 -0 -0 -0 0 0 0 0 0 0 0 0 0 0 0 0 0 0 0 0 0 0 0 0
0 0 0 0 0 0 0 0 0 0 0 0 0 0 0 0 0 0 0 0 0 -0 -0 -0 0 0 0 0 0 0 0 0 0 0 0 0 0 0 0 0 0 0 0 0
Wind_Speed_500mb
8 4 3 4 6 6 9 12 4 18 22 28 38 54 68 76 73 90 91 93 98 105 108 108 109 110 101 98 98 97 101 104 106 96 91 87 87 88 79 49 34 26 9 1
5 6 4 8 7 8 14 11 12 19 18 43 58 58 69 64 82 86 88 93 93 105 107 105 105 104 102 100 93 87 93 99 100 97 92 97 99 92 80 69 69 43 27 11
2 5 6 6 4 3 10 12 12 11 15 47 48 57 72 63 85 84 87 92 89 101 103 99 99 100 97 94 86 79 91 92 94 95 93 88 90 94 92 83 81 74 54 22
6 2 4 6 8 6 10 11 11 13 29 41 47 61 60 69 75 81 85 86 94 95 97 95 94 96 92 89 83 79 86 88 83 85 84 90 82 88 96 95 89 88 83 54
3 7 6 6 4 7 8 8 13 13 33 43 52 55 39 72 78 78 80 76 91 87 89 86 90 96 88 87 80 78 82 88 78 77 74 78 81 83 82 92 98 97 94 88
5 2 5 6 8 4 3 4 26 30 34 44 55 24 41 78 79 78 76 86 85 83 83 81 89 92 86 84 82 81 74 83 77 72 68 63 69 74 73 82 88 93 98 104
3 3 1 10 6 2 6 8 28 30 35 41 37 44 64 72 76 75 70 84 87 76 85 78 85 89 86 81 82 76 62 69 82 73 69 59 57 66 64 70 75 84 97 96
3 2 8 17 5 3 2 14 22 28 34 43 49 56 62 67 72 73 75 82 90 77 81 75 82 88 83 79 76 70 63 60 67 81 72 74 70 70 67 68 75 81 81 81
8 4 19 12 8 3 5 12 20 25 35 41 48 55 61 68 72 73 74 80 85 72 77 72 78 85 80 75 74 68 66 58 58 61 80 77 81 82 83 82 82 81 84 85
7 12 18 12 5 4 2 9 15 22 31 37 46 51 59 64 69 69 68 75 81 68 76 75 74 81 73 69 72 67 61 59 57 60 59 77 80 82 84 85 84 82 78 80
6 17 16 10 11 6 1 8 13 20 26 33 42 50 54 63 67 66 67 79 68 64 72 71 67 78 70 68 72 66 58 54 55 58 57 54 67 75 76 73 73 76 73 75
5 30 16 28 17 5 4 5 14 22 30 36 39 48 54 61 62 63 69 81 65 57 66 68 63 72 69 63 68 66 57 56 52 54 54 54 53 60 73 73 73 72 68 62
15 20 21 26 15 9 5 6 16 24 28 36 41 44 50 56 60 58 69 73 64 56 62 63 61 69 67 59 62 62 52 51 47 49 51 51 51 52 54 62 67 71 66 64
29 30 25 18 13 10 3 8 16 18 23 30 37 43 49 53 61 58 72 67 62 50 54 58 59 62 63 54 57 54 51 44 44 44 45 44 45 49 54 60 64 64 61 62
30 11 20 25 18 9 4 9 14 19 27 34 38 44 50 54 57 59 62 65 65 47 49 53 56 56 61 51 52 50 50 44 40 39 42 41 42 46 50 55 58 60 60 63
31 25 23 23 18 9 5 6 14 22 29 35 41 45 47 47 53 59 59 66 69 57 48 50 51 50 54 50 48 45 45 40 38 37 39 41 45 50 54 55 55 60 62 62
43 33 31 26 19 12 3 7 15 21 27 33 39 43 46 47 56 61 59 66 64 49 42 43 45 45 43 44 44 41 40 38 36 36 38 38 41 46 49 50 54 57 58 58
26 23 25 23 23 14 4 4 12 18 25 32 35 40 44 46 54 60 58 65 68 56 44 37 37 40 34 37 38 36 34 34 32 34 35 34 36 39 42 43 48 49 50 52
34 31 33 30 23 16 6 2 9 17 23 29 34 38 40 39 49 60 59 68 71 65 57 43 32 34 29 31 32 31 29 29 28 28 32 31 31 33 35 39 42 43 44 47
40 37 33 28 21 13 7 1 8 15 21 26 31 36 41 40 47 61 64 70 68 59 53 44 34 31 25 24 27 27 25 23 24 24 25 27 30 30 29 34 36 38 39 41
43 38 33 26 20 13 8 2 8 13 18 25 30 35 40 37 41 58 70 77 72 60 51 44 34 31 25 19 23 22 21 19 18 18 18 22 24 25 25 28 29 32 34 36
45 40 34 28 21 15 8 2 7 14 18 21 26 32 37 39 40 53 60 64 71 59 51 46 39 32 22 12 17 18 17 16 14 14 13 15 19 20 22 22 23 26 28 29
46 41 36 30 22 16 9 3 6 11 17 21 27 32 35 38 37 51 66 69 68 57 47 45 42 32 18 8 11 15 13 12 11 10 10 11 13 16 18 18 19 20 22 23
47 42 36 30 24 17 10 4 4 9 16 20 25 31 36 39 33 38 56 63 65 56 46 45 42 35 19 8 4 12 10 9 8 6 6 7 7 10 12 14 15 16 17 19
48 43 37 30 24 19 12 6 1 7 12 16 21 27 30 33 34 36 52 62 63 56 47 43 41 36 23 10 3 10 10 5 4 3 3 3 4 4 7 8 11 12 13 14
50 44 35 29 25 20 15 10 5 1 8 14 18 23 27 31 31 30 42 58 63 59 49 44 42 39 29 14 4 7 9 6 2 1 2 2 2 2 2 4 6 8 9 10
48 42 39 35 29 23 18 12 7 1 6 12 17 22 26 29 30 29 33 51 62 61 53 46 41 39 34 22 10 7 9 7 5 2 4 5 5 4 3 2 3 5 5 7
Wind_Direction_500mb
99 77 342 314 301 179 168 246 182 294 327 355 347 337 335 334 349 349 347 349 350 349 348 354 359 359 4 7 6 6 9 7 10 15 20 26 30 30 37 36 42 36 48 312
213 164 270 283 237 261 275 341 312 323 313 351 333 335 335 343 354 347 346 347 348 347 350 356 359 355 1 1 5 1 8 7 11 20 25 30 31 36 46 54 42 37 44 38
93 198 293 253 284 19 351 342 318 325 329 341 335 340 331 359 349 344 345 347 348 345 350 357 0 357 356 359 2 359 3 8 12 16 24 32 36 42 46 50 53 48 46 35
273 225 304 138 50 345 326 320 45 351 336 336 337 330 330 351 346 344 345 347 347 345 354 360 1 358 356 2 3 2 3 8 16 15 25 27 35 46 46 49 52 52 43 51
41 299 127 172 129 21 50 339 48 345 339 340 340 332 335 346 347 345 345 346 346 348 358 4 3 360 3 4 4 7 8 11 17 22 27 29 21 33 48 52 54 56 54 47
4 359 295 81 111 47 183 133 3 0 350 347 345 346 330 340 342 344 347 345 347 352 5 8 5 4 5 9 13 7 14 14 20 27 26 35 37 26 31 48 54 58 57 57
286 281 330 109 116 327 29 282 357 357 351 348 341 328 326 336 342 345 347 350 349 359 6 10 6 7 7 13 21 7 18 15 21 28 33 38 44 44 44 38 48 49 53 58
93 9 285 144 161 72 350 352 352 353 347 341 333 333 336 340 343 347 348 353 353 1 7 12 9 9 7 15 19 7 17 24 21 23 38 46 49 53 52 54 51 52 55 51
160 223 119 143 89 63 12 341 349 348 344 340 333 337 340 342 345 347 350 351 355 2 8 13 10 11 8 15 20 10 19 28 31 25 30 46 51 53 57 56 56 54 54 54
32 142 156 154 177 119 358 331 344 349 342 340 334 339 342 343 347 348 351 352 357 4 10 11 10 11 13 19 22 12 25 30 36 36 27 33 47 51 52 55 58 54 52 55
231 134 129 175 171 180 348 7 346 345 348 340 341 341 344 346 350 349 350 351 5 7 9 11 9 11 15 23 23 16 27 32 41 42 41 36 36 45 53 52 53 54 56 54
190 153 119 168 176 195 104 346 350 351 357 348 347 345 349 350 353 351 350 355 8 10 8 13 11 13 14 24 26 14 27 34 40 47 47 50 51 49 52 54 55 57 55 58
135 148 145 153 157 160 152 7 357 12 355 346 346 350 350 356 355 351 348 358 10 8 7 13 14 13 13 23 26 17 22 35 40 48 48 49 54 58 61 62 59 53 54 56
160 143 127 144 164 164 111 24 20 5 345 351 346 353 357 359 0 355 353 354 7 9 9 12 17 13 11 21 26 20 26 36 40 46 49 50 52 57 60 59 59 60 60 63
150 150 157 163 151 144 87 27 16 356 355 356 355 358 4 2 360 352 355 358 6 11 10 12 16 11 10 18 27 22 25 32 41 48 52 51 56 60 61 63 65 66 69 70
160 155 145 137 146 144 86 352 6 3 359 358 358 3 5 4 0 359 356 359 6 7 6 8 12 13 7 16 26 26 28 31 42 49 54 56 61 63 64 65 65 65 66 65
157 159 157 158 152 162 182 8 4 1 356 359 1 4 4 7 3 2 359 1 7 11 7 5 7 11 3 17 22 25 30 33 41 51 53 55 60 63 65 65 66 66 66 65
171 165 159 161 169 174 163 5 359 1 1 358 3 7 6 8 7 360 358 3 5 12 15 8 6 8 4 17 21 23 28 32 37 49 53 56 58 64 66 68 70 70 70 70
169 168 162 175 177 173 174 327 5 6 1 1 5 9 7 9 7 4 359 10 6 6 8 8 5 6 4 17 22 23 28 35 39 46 58 58 57 61 67 71 73 73 72 72
169 174 173 175 176 174 174 81 18 11 359 1 8 8 9 12 10 8 6 13 8 5 1 4 4 2 11 7 23 24 25 33 40 47 55 58 60 59 63 71 73 74 72 71
175 175 175 176 177 172 169 78 13 13 7 2 9 10 7 10 13 9 6 11 8 6 6 6 3 4 14 6 19 25 26 29 38 42 50 60 63 62 61 67 72 74 74 72
177 176 175 177 177 171 170 108 18 8 4 5 8 9 9 9 14 12 10 6 5 4 5 4 7 4 3 12 6 23 27 27 31 41 44 59 68 67 65 65 69 73 74 75
178 177 178 178 176 175 171 133 33 3 1 3 6 12 11 12 12 7 7 7 3 4 4 7 6 359 359 20 349 12 23 29 27 37 42 44 63 72 72 69 69 70 73 74
177 178 179 179 179 176 179 143 35 3 3 4 3 6 6 9 18 13 11 8 6 5 5 7 6 3 2 17 358 355 11 29 29 30 55 58 58 76 78 80 76 75 74 76
180 179 181 182 183 181 185 170 79 9 357 359 3 6 9 9 9 10 11 12 8 9 8 8 9 7 4 5 41 351 351 9 35 26 15 75 78 76 88 87 89 85 82 82
179 183 184 183 186 189 184 182 191 356 350 359 3 5 11 10 11 12 13 15 10 12 12 8 8 8 8 357 12 327 336 332 347 312 279 233 174 137 121 115 103 100 98 96
181 183 184 186 193 194 193 190 198 284 343 358 2 5 13 11 13 12 11 16 13 13 14 11 9 8 7 1 341 322 317 317 292 252 247 243 228 212 208 192 145 125 116 111
Wind_Speed_850mb
8 4 3 4 6 6 9 12 4 18 22 28 38 54 68 76 73 90 91 93 98 105 108 108 109 110 101 98 98 97 101 104 106 96 91 87 87 88 79 49 34 26 9 1
5 6 4 8 7 8 14 11 12 19 18 43 58 58 69 64 82 86 88 93 93 105 107 105 105 104 102 100 93 87 93 99 100 97 92 97 99 92 80 69 69 43 27 11
2 5 6 6 4 3 10 12 12 11 15 47 48 57 72 63 85 84 87 92 89 101 103 99 99 100 97 94 86 79 91 92 94 95 93 88 90 94 92 83 81 74 54 22
6 2 4 6 8 6 10 11 11 13 29 41 47 61 60 69 75 81 85 86 94 95 97 95 94 96 92 89 83 79 86 88 83 85 84 90 82 88 96 95 89 88 83 54
3 7 6 6 4 7 8 8 13 13 33 43 52 55 39 72 78 78 80 76 91 87 89 86 90 96 88 87 80 78 82 88 78 77 74 78 81 83 82 92 98 97 94 88
5 2 5 6 8 4 3 4 26 30 34 44 55 24 41 78 79 78 76 86 85 83 83 81 89 92 86 84 82 81 74 83 77 72 68 63 69 74 73 82 88 93 98 104
3 3 1 10 6 2 6 8 28 30 35 41 37 44 64 72 76 75 70 84 87 76 85 78 85 89 86 81 82 76 62 69 82 73 69 59 57 66 64 70 75 84 97 96
3 2 8 17 5 3 2 14 22 28 34 43 49 56 62 67 72 73 75 82 90 77 81 75 82 88 83 79 76 70 63 60 67 81 72 74 70 70 67 68 75 81 81 81
8 4 19 12 8 3 5 12 20 25 35 41 48 55 61 68 72 73 74 80 85 72 77 72 78 85 80 75 74 68 66 58 58 61 80 77 81 82 83 82 82 81 84 85
7 12 18 12 5 4 2 9 15 22 31 37 46 51 59 64 69 69 68 75 81 68 76 75 74 81 73 69 72 67 61 59 57 60 59 77 80 82 84 85 84 82 78 80
6 17 16 10 11 6 1 8 13 20 26 33 42 50 54 63 67 66 67 79 68 64 72 71 67 78 70 68 72 66 58 54 55 58 57 54 67 75 76 73 73 76 73 75
5 30 16 28 17 5 4 5 14 22 30 36 39 48 54 61 62 63 69 81 65 57 66 68 63 72 69 63 68 66 57 56 52 54 54 54 53 60 73 73 73 72 68 62
15 20 21 26 15 9 5 6 16 24 28 36 41 44 50 56 60 58 69 73 64 56 62 63 61 69 67 59 62 62 52 51 47 49 51 51 51 52 54 62 67 71 66 64
29 30 25 18 13 10 3 8 16 18 23 30 37 43 49 53 61 58 72 67 62 50 54 58 59 62 63 54 57 54 51 44 44 44 45 44 45 49 54 60 64 64 61 62
30 11 20 25 18 9 4 9 14 19 27 34 38 44 50 54 57 59 62 65 65 47 49 53 56 56 61 51 52 50 50 44 40 39 42 41 42 46 50 55 58 60 60 63
31 25 23 23 18 9 5 6 14 22 29 35 41 45 47 47 53 59 59 66 69 57 48 50 51 50 54 50 48 45 45 40 38 37 39 41 45 50 54 55 55 60 62 62
43 33 31 26 19 12 3 7 15 21 27 33 39 43 46 47 56 61 59 66 64 49 42 43 45 45 43 44 44 41 40 38 36 36 38 38 41 46 49 50 54 57 58 58
26 23 25 23 23 14 4 4 12 18 25 32 35 40 44 46 54 60 58 65 68 56 44 37 37 40 34 37 38 36 34 34 32 34 35 34 36 39 42 43 48 49 50 52
34 31 33 30 23 16 6 2 9 17 23 29 34 38 40 39 49 60 59 68 71 65 57 43 32 34 29 31 32 31 29 29 28 28 32 31 31 33 35 39 42 43 44 47
40 37 33 28 21 13 7 1 8 15 21 26 31 36 41 40 47 61 64 70 68 59 53 44 34 31 25 24 27 27 25 23 24 24 25 27 30 30 29 34 36 38 39 41
43 38 33 26 20 13 8 2 8 13 18 25 30 35 40 37 41 58 70 77 72 60 51 44 34 31 25 19 23 22 21 19 18 18 18 22 24 25 25 28 29 32 34 36
45 40 34 28 21 15 8 2 7 14 18 21 26 32 37 39 40 53 60 64 71 59 51 46 39 32 22 12 17 18 17 16 14 14 13 15 19 20 22 22 23 26 28 29
46 41 36 30 22 16 9 3 6 11 17 21 27 32 35 38 37 51 66 69 68 57 47 45 42 32 18 8 11 15 13 12 11 10 10 11 13 16 18 18 19 20 22 23
47 42 36 30 24 17 10 4 4 9 16 20 25 31 36 39 33 38 56 63 65 56 46 45 42 35 19 8 4 12 10 9 8 6 6 7 7 10 12 14 15 16 17 19
48 43 37 30 24 19 12 6 1 7 12 16 21 27 30 33 34 36 52 62 63 56 47 43 41 36 23 10 3 10 10 5 4 3 3 3 4 4 7 8 11 12 13 14
50 44 35 29 25 20 15 10 5 1 8 14 18 23 27 31 31 30 42 58 63 59 49 44 42 39 29 14 4 7 9 6 2 1 2 2 2 2 2 4 6 8 9 10
48 42 39 35 29 23 18 12 7 1 6 12 17 22 26 29 30 29 33 51 62 61 53 46 41 39 34 22 10 7 9 7 5 2 4 5 5 4 3 2 3 5 5 7
Wind_Direction_850mb
99 77 342 314 301 179 168 246 182 294 327 355 347 337 335 334 349 349 347 349 350 349 348 354 359 359 4 7 6 6 9 7 10 15 20 26 30 30 37 36 42 36 48 312
213 164 270 283 237 261 275 341 312 323 313 351 333 335 335 343 354 347 346 347 348 347 350 356 359 355 1 1 5 1 8 7 11 20 25 30 31 36 46 54 42 37 44 38
93 198 293 253 284 19 351 342 318 325 329 341 335 340 331 359 349 344 345 347 348 345 350 357 0 357 356 359 2 359 3 8 12 16 24 32 36 42 46 50 53 48 46 35
273 225 304 138 50 345 326 320 45 351 336 336 337 330 330 351 346 344 345 347 347 345 354 360 1 358 356 2 3 2 3 8 16 15 25 27 35 46 46 49 52 52 43 51
41 299 127 172 129 21 50 339 48 345 339 340 340 332 335 346 347 345 345 346 346 348 358 4 3 360 3 4 4 7 8 11 17 22 27 29 21 33 48 52 54 56 54 47
4 359 295 81 111 47 183 133 3 0 350 347 345 346 330 340 342 344 347 345 347 352 5 8 5 4 5 9 13 7 14 14 20 27 26 35 37 26 31 48 54 58 57 57
286 281 330 109 116 327 29 282 357 357 351 348 341 328 326 336 342 345 347 350 349 359 6 10 6 7 7 13 21 7 18 15 21 28 33 38 44 44 44 38 48 49 53 58
93 9 285 144 161 72 350 352 352 353 347 341 333 333 336 340 343 347 348 353 353 1 7 12 9 9 7 15 19 7 17 24 21 23 38 46 49 53 52 54 51 52 55 51
160 223 119 143 89 63 12 341 349 348 344 340 333 337 340 342 345 347 350 351 355 2 8 13 10 11 8 15 20 10 19 28 31 25 30 46 51 53 57 56 56 54 54 54
32 142 156 154 177 119 358 331 344 349 342 340 334 339 342 343 347 348 351 352 357 4 10 11 10 11 13 19 22 12 25 30 36 36 27 33 47 51 52 55 58 54 52 55
231 134 129 175 171 180 348 7 346 345 348 340 341 341 344 346 350 349 350 351 5 7 9 11 9 11 15 23 23 16 27 32 41 42 41 36 36 45 53 52 53 54 56 54
190 153 119 168 176 195 104 346 350 351 357 348 347 345 349 350 353 351 350 355 8 10 8 13 11 13 14 24 26 14 27 34 40 47 47 50 51 49 52 54 55 57 55 58
135 148 145 153 157 160 152 7 357 12 355 346 346 350 350 356 355 351 348 358 10 8 7 13 14 13 13 23 26 17 22 35 40 48 48 49 54 58 61 62 59 53 54 56
160 143 127 144 164 164 111 24 20 5 345 351 346 353 357 359 0 355 353 354 7 9 9 12 17 13 11 21 26 20 26 36 40 46 49 50 52 57 60 59 59 60 60 63
150 150 157 163 151 144 87 27 16 356 355 356 355 358 4 2 360 352 355 358 6 11 10 12 16 11 10 18 27 22 25 32 41 48 52 51 56 60 61 63 65 66 69 70
160 155 145 137 146 144 86 352 6 3 359 358 358 3 5 4 0 359 356 359 6 7 6 8 12 13 7 16 26 26 28 31 42 49 54 56 61 63 64 65 65 65 66 65
157 159 157 158 152 162 182 8 4 1 356 359 1 4 4 7 3 2 359 1 7 11 7 5 7 11 3 17 22 25 30 33 41 51 53 55 60 63 65 65 66 66 66 65
171 165 159 161 169 174 163 5 359 1 1 358 3 7 6 8 7 360 358 3 5 12 15 8 6 8 4 17 21 23 28 32 37 49 53 56 58 64 66 68 70 70 70 70
169 168 162 175 177 173 174 327 5 6 1 1 5 9 7 9 7 4 359 10 6 6 8 8 5 6 4 17 22 23 28 35 39 46 58 58 57 61 67 71 73 73 72 72
169 174 173 175 176 174 174 81 18 11 359 1 8 8 9 12 10 8 6 13 8 5 1 4 4 2 11 7 23 24 25 33 40 47 55 58 60 59 63 71 73 74 72 71
175 175 175 176 177 172 169 78 13 13 7 2 9 10 7 10 13 9 6 11 8 6 6 6 3 4 14 6 19 25 26 29 38 42 50 60 63 62 61 67 72 74 74 72
177 176 175 177 177 171 170 108 18 8 4 5 8 9 9 9 14 12 10 6 5 4 5 4 7 4 3 12 6 23 27 27 31 41 44 59 68 67 65 65 69 73 74 75
178 177 178 178 176 175 171 133 33 3 1 3 6 12 11 12 12 7 7 7 3 4 4 7 6 359 359 20 349 12 23 29 27 37 42 44 63 72 72 69 69 70 73 74
177 178 179 179 179 176 179 143 35 3 3 4 3 6 6 9 18 13 11 8 6 5 5 7 6 3 2 17 358 355 11 29 29 30 55 58 58 76 78 80 76 75 74 76
180 179 181 182 183 181 185 170 79 9 357 359 3 6 9 9 9 10 11 12 8 9 8 8 9 7 4 5 41 351 351 9 35 26 15 75 78 76 88 87 89 85 82 82
179 183 184 183 186 189 184 182 191 356 350 359 3 5 11 10 11 12 13 15 10 12 12 8 8 8 8 357 12 327 336 332 347 312 279 233 174 137 121 115 103 100 98 96
181 183 184 186 193 194 193 190 198 284 343 358 2 5 13 11 13 12 11 16 13 13 14 11 9 8 7 1 341 322 317 317 292 252 247 243 228 212 208 192 145 125 116 111